User: anonymous   Login
Location: Unspecified
(0.0000°N, 0.0000°E)
Time: 15:11:03
(UTC+00:00)
Language:

Nadezhda 2 - Orbit

View from above orbital plane
View from above orbital plane
View from above satellite
View from above satellite

Ground track
Ground track

The orbit data is extracted from the following two-line orbital elements,

1 20508U 90017A   18051.81156385 +.00000056 +00000-0 +43056-4 0  9997
2 20508 082.9589 158.1699 0042817 268.7049 202.8548 13.74257349403039
Epoch (UTC): 20 February 2018 19:28:39
Eccentricity: 0.0042817
inclination: 82.9589°
perigee height: 953 km
apogee height: 1016 km
right ascension of ascending node: 158.1699°
argument of perigee: 268.7049°
revolutions per day: 13.74257349
mean anomaly at epoch: 202.8548°
orbit number at epoch: 40303

The dashed part of the orbit path shows where the satellite is in the earth's shadow,  

DLR